Regional Weather Roundup
Issued by NWS

Home | Current Version | Previous Version | Graphics & Text | Print | Product List | Glossary On
Versions: 1 2 3 4 5 6 7 8 9 10 11 12 13 14 15 16 17 18 19 20 21 22 23 24 25 26 27 28 29 30 31 32 33 34 35 36 37 38 39 40 41 42 43 44 45 46 47 48 49 50
000
ASUS43 KBIS 160610
RWRND

NORTH DAKOTA REGIONAL WEATHER ROUNDUP
NATIONAL WEATHER SERVICE BISMARCK ND
1200 AM CST SAT DEC 16 2017

NOTE: "FAIR" INDICATES FEW OR NO CLOUDS BELOW 12,000 FEET WITH NO
SIGNIFICANT WEATHER AND/OR OBSTRUCTIONS TO VISIBILITY.


NDZ001>003-009>011-017-160700-
NORTHWEST NORTH DAKOTA

CITY           SKY/WX    TMP DP  RH WIND       PRES   REMARKS
WILLISTON      LGT RAIN  39  34  81 W7        29.67R
MINOT          CLOUDY    40  36  86 W14       29.57R
MINOT AFB      CLOUDY    39  35  85 NW14      29.56R
$$

NDZ018>021-031>035-040>046-160700-
SOUTHWEST NORTH DAKOTA

CITY           SKY/WX    TMP DP  RH WIND       PRES   REMARKS
BISMARCK       CLOUDY    38  33  82 W6        29.61R
6HR MIN TEMP:  37; 6HR MAX TEMP:  42; 6HR PCP: TRACE;

DICKINSON      CLOUDY    36  23  59 W8        29.63R
GARRISON         N/A     38  35  89 NW14      29.60R
6HR MIN TEMP:  37; 6HR MAX TEMP:  41;

HETTINGER ARPT CLOUDY    31  20  63 NW9       29.67R
$$

NDZ004>008-012>016-024-026-027-054-160700-
NORTHEAST NORTH DAKOTA

CITY           SKY/WX    TMP DP  RH WIND       PRES   REMARKS
GRAND FORKS    CLOUDY    21  19  92 E13       29.63R WCI   9
GRND FRKS AFB  CLOUDY    21  19  90 E6        29.63R WCI  14
DEVILS LAKE    CLOUDY    24  22  91 E8        29.58R WCI  15
$$

NDZ022-023-025-028>030-036>039-047>053-160700-
SOUTHEAST NORTH DAKOTA

CITY           SKY/WX    TMP DP  RH WIND       PRES   REMARKS
FARGO          CLOUDY    29  26  89 E10       29.58S WCI  20
6HR MIN TEMP:  28; 6HR MAX TEMP:  30; 6HR PCP:  0.04;

JAMESTOWN      CLOUDY    33  28  81 NW6       29.55R
$$





USA.gov is the U.S. government's official web portal to all federal, state and local government web resources and services.